Index of /20260503/WXO-DD/model_rdps/10km/06/010
Name Last modified Size Description
Parent Directory -
20260503T06Z_MSC_RDPS_AbsoluteVorticity_IsbL-0250_RLatLon0.09_PT010H.grib2 2026-05-03 08:45 617K
20260503T06Z_MSC_RDPS_AbsoluteVorticity_IsbL-0500_RLatLon0.09_PT010H.grib2 2026-05-03 08:45 561K
20260503T06Z_MSC_RDPS_AbsoluteVorticity_IsbL-0700_RLatLon0.09_PT010H.grib2 2026-05-03 08:45 621K
20260503T06Z_MSC_RDPS_AbsoluteVorticity_IsbL-0850_RLatLon0.09_PT010H.grib2 2026-05-03 08:45 793K
20260503T06Z_MSC_RDPS_AirTemp_AGL-120m_RLatLon0.09_PT010H.grib2 2026-05-03 08:45 399K
20260503T06Z_MSC_RDPS_AirTemp_AGL-2m_RLatLon0.09_PT010H.grib2 2026-05-03 08:45 637K
20260503T06Z_MSC_RDPS_AirTemp_AGL-40m_RLatLon0.09_PT010H.grib2 2026-05-03 08:45 409K
20260503T06Z_MSC_RDPS_AirTemp_AGL-80m_RLatLon0.09_PT010H.grib2 2026-05-03 08:45 404K
20260503T06Z_MSC_RDPS_AirTemp_IsbL-0001_RLatLon0.09_PT010H.grib2 2026-05-03 08:45 318K
20260503T06Z_MSC_RDPS_AirTemp_IsbL-0005_RLatLon0.09_PT010H.grib2 2026-05-03 08:45 278K
20260503T06Z_MSC_RDPS_AirTemp_IsbL-0010_RLatLon0.09_PT010H.grib2 2026-05-03 08:45 288K
20260503T06Z_MSC_RDPS_AirTemp_IsbL-0020_RLatLon0.09_PT010H.grib2 2026-05-03 08:45 306K
20260503T06Z_MSC_RDPS_AirTemp_IsbL-0030_RLatLon0.09_PT010H.grib2 2026-05-03 08:45 328K
20260503T06Z_MSC_RDPS_AirTemp_IsbL-0050_RLatLon0.09_PT010H.grib2 2026-05-03 08:45 308K
20260503T06Z_MSC_RDPS_AirTemp_IsbL-0100_RLatLon0.09_PT010H.grib2 2026-05-03 08:45 386K
20260503T06Z_MSC_RDPS_AirTemp_IsbL-0150_RLatLon0.09_PT010H.grib2 2026-05-03 08:45 413K
20260503T06Z_MSC_RDPS_AirTemp_IsbL-0175_RLatLon0.09_PT010H.grib2 2026-05-03 08:45 404K
20260503T06Z_MSC_RDPS_AirTemp_IsbL-0200_RLatLon0.09_PT010H.grib2 2026-05-03 08:45 413K
20260503T06Z_MSC_RDPS_AirTemp_IsbL-0225_RLatLon0.09_PT010H.grib2 2026-05-03 08:45 417K
20260503T06Z_MSC_RDPS_AirTemp_IsbL-0250_RLatLon0.09_PT010H.grib2 2026-05-03 08:45 424K
20260503T06Z_MSC_RDPS_AirTemp_IsbL-0275_RLatLon0.09_PT010H.grib2 2026-05-03 08:45 404K
20260503T06Z_MSC_RDPS_AirTemp_IsbL-0300_RLatLon0.09_PT010H.grib2 2026-05-03 08:45 410K
20260503T06Z_MSC_RDPS_AirTemp_IsbL-0350_RLatLon0.09_PT010H.grib2 2026-05-03 08:45 423K
20260503T06Z_MSC_RDPS_AirTemp_IsbL-0400_RLatLon0.09_PT010H.grib2 2026-05-03 08:45 425K
20260503T06Z_MSC_RDPS_AirTemp_IsbL-0450_RLatLon0.09_PT010H.grib2 2026-05-03 08:45 432K
20260503T06Z_MSC_RDPS_AirTemp_IsbL-0500_RLatLon0.09_PT010H.grib2 2026-05-03 08:45 444K
20260503T06Z_MSC_RDPS_AirTemp_IsbL-0550_RLatLon0.09_PT010H.grib2 2026-05-03 08:45 426K
20260503T06Z_MSC_RDPS_AirTemp_IsbL-0600_RLatLon0.09_PT010H.grib2 2026-05-03 08:45 442K
20260503T06Z_MSC_RDPS_AirTemp_IsbL-0650_RLatLon0.09_PT010H.grib2 2026-05-03 08:45 456K
20260503T06Z_MSC_RDPS_AirTemp_IsbL-0700_RLatLon0.09_PT010H.grib2 2026-05-03 08:45 482K
20260503T06Z_MSC_RDPS_AirTemp_IsbL-0750_RLatLon0.09_PT010H.grib2 2026-05-03 08:45 523K
20260503T06Z_MSC_RDPS_AirTemp_IsbL-0800_RLatLon0.09_PT010H.grib2 2026-05-03 08:45 577K
20260503T06Z_MSC_RDPS_AirTemp_IsbL-0850_RLatLon0.09_PT010H.grib2 2026-05-03 08:45 638K
20260503T06Z_MSC_RDPS_AirTemp_IsbL-0875_RLatLon0.09_PT010H.grib2 2026-05-03 08:45 659K
20260503T06Z_MSC_RDPS_AirTemp_IsbL-0900_RLatLon0.09_PT010H.grib2 2026-05-03 08:45 536K
20260503T06Z_MSC_RDPS_AirTemp_IsbL-0925_RLatLon0.09_PT010H.grib2 2026-05-03 08:45 531K
20260503T06Z_MSC_RDPS_AirTemp_IsbL-0950_RLatLon0.09_PT010H.grib2 2026-05-03 08:45 535K
20260503T06Z_MSC_RDPS_AirTemp_IsbL-0970_RLatLon0.09_PT010H.grib2 2026-05-03 08:45 530K
20260503T06Z_MSC_RDPS_AirTemp_IsbL-0985_RLatLon0.09_PT010H.grib2 2026-05-03 08:45 520K
20260503T06Z_MSC_RDPS_AirTemp_IsbL-1000_RLatLon0.09_PT010H.grib2 2026-05-03 08:45 505K
20260503T06Z_MSC_RDPS_AirTemp_IsbL-1015_RLatLon0.09_PT010H.grib2 2026-05-03 08:45 504K
20260503T06Z_MSC_RDPS_Albedo_Sfc_RLatLon0.09_PT010H.grib2 2026-05-03 08:45 158K
20260503T06Z_MSC_RDPS_CAPE_Sfc_RLatLon0.09_PT010H.grib2 2026-05-03 08:45 1.8M
20260503T06Z_MSC_RDPS_CIN_Sfc_RLatLon0.09_PT010H.grib2 2026-05-03 08:45 1.2M
20260503T06Z_MSC_RDPS_CloudWater_EAtm_RLatLon0.09_PT010H.grib2 2026-05-03 08:45 218K
20260503T06Z_MSC_RDPS_ConvectivePrecip-Accum_Sfc_RLatLon0.09_PT010H.grib2 2026-05-03 08:45 543K
20260503T06Z_MSC_RDPS_DewPointDepression_AGL-2m_RLatLon0.09_PT010H.grib2 2026-05-03 08:45 425K
20260503T06Z_MSC_RDPS_DewPointDepression_IsbL-0001_RLatLon0.09_PT010H.grib2 2026-05-03 08:45 193
20260503T06Z_MSC_RDPS_DewPointDepression_IsbL-0005_RLatLon0.09_PT010H.grib2 2026-05-03 08:45 193
20260503T06Z_MSC_RDPS_DewPointDepression_IsbL-0010_RLatLon0.09_PT010H.grib2 2026-05-03 08:45 193
20260503T06Z_MSC_RDPS_DewPointDepression_IsbL-0020_RLatLon0.09_PT010H.grib2 2026-05-03 08:45 193
20260503T06Z_MSC_RDPS_DewPointDepression_IsbL-0030_RLatLon0.09_PT010H.grib2 2026-05-03 08:45 193
20260503T06Z_MSC_RDPS_DewPointDepression_IsbL-0050_RLatLon0.09_PT010H.grib2 2026-05-03 08:45 101K
20260503T06Z_MSC_RDPS_DewPointDepression_IsbL-0100_RLatLon0.09_PT010H.grib2 2026-05-03 08:45 117K
20260503T06Z_MSC_RDPS_DewPointDepression_IsbL-0150_RLatLon0.09_PT010H.grib2 2026-05-03 08:45 148K
20260503T06Z_MSC_RDPS_DewPointDepression_IsbL-0175_RLatLon0.09_PT010H.grib2 2026-05-03 08:45 184K
20260503T06Z_MSC_RDPS_DewPointDepression_IsbL-0200_RLatLon0.09_PT010H.grib2 2026-05-03 08:45 220K
20260503T06Z_MSC_RDPS_DewPointDepression_IsbL-0225_RLatLon0.09_PT010H.grib2 2026-05-03 08:45 261K
20260503T06Z_MSC_RDPS_DewPointDepression_IsbL-0250_RLatLon0.09_PT010H.grib2 2026-05-03 08:45 297K
20260503T06Z_MSC_RDPS_DewPointDepression_IsbL-0275_RLatLon0.09_PT010H.grib2 2026-05-03 08:45 307K
20260503T06Z_MSC_RDPS_DewPointDepression_IsbL-0300_RLatLon0.09_PT010H.grib2 2026-05-03 08:45 325K
20260503T06Z_MSC_RDPS_DewPointDepression_IsbL-0350_RLatLon0.09_PT010H.grib2 2026-05-03 08:45 332K
20260503T06Z_MSC_RDPS_DewPointDepression_IsbL-0400_RLatLon0.09_PT010H.grib2 2026-05-03 08:45 335K
20260503T06Z_MSC_RDPS_DewPointDepression_IsbL-0450_RLatLon0.09_PT010H.grib2 2026-05-03 08:45 336K
20260503T06Z_MSC_RDPS_DewPointDepression_IsbL-0500_RLatLon0.09_PT010H.grib2 2026-05-03 08:45 342K
20260503T06Z_MSC_RDPS_DewPointDepression_IsbL-0550_RLatLon0.09_PT010H.grib2 2026-05-03 08:45 354K
20260503T06Z_MSC_RDPS_DewPointDepression_IsbL-0600_RLatLon0.09_PT010H.grib2 2026-05-03 08:45 361K
20260503T06Z_MSC_RDPS_DewPointDepression_IsbL-0650_RLatLon0.09_PT010H.grib2 2026-05-03 08:45 368K
20260503T06Z_MSC_RDPS_DewPointDepression_IsbL-0700_RLatLon0.09_PT010H.grib2 2026-05-03 08:45 382K
20260503T06Z_MSC_RDPS_DewPointDepression_IsbL-0750_RLatLon0.09_PT010H.grib2 2026-05-03 08:45 403K
20260503T06Z_MSC_RDPS_DewPointDepression_IsbL-0800_RLatLon0.09_PT010H.grib2 2026-05-03 08:45 441K
20260503T06Z_MSC_RDPS_DewPointDepression_IsbL-0850_RLatLon0.09_PT010H.grib2 2026-05-03 08:45 474K
20260503T06Z_MSC_RDPS_DewPointDepression_IsbL-0875_RLatLon0.09_PT010H.grib2 2026-05-03 08:45 475K
20260503T06Z_MSC_RDPS_DewPointDepression_IsbL-0900_RLatLon0.09_PT010H.grib2 2026-05-03 08:45 465K
20260503T06Z_MSC_RDPS_DewPointDepression_IsbL-0925_RLatLon0.09_PT010H.grib2 2026-05-03 08:45 454K
20260503T06Z_MSC_RDPS_DewPointDepression_IsbL-0950_RLatLon0.09_PT010H.grib2 2026-05-03 08:45 453K
20260503T06Z_MSC_RDPS_DewPointDepression_IsbL-0970_RLatLon0.09_PT010H.grib2 2026-05-03 08:45 448K
20260503T06Z_MSC_RDPS_DewPointDepression_IsbL-0985_RLatLon0.09_PT010H.grib2 2026-05-03 08:45 444K
20260503T06Z_MSC_RDPS_DewPointDepression_IsbL-1000_RLatLon0.09_PT010H.grib2 2026-05-03 08:45 440K
20260503T06Z_MSC_RDPS_DewPointDepression_IsbL-1015_RLatLon0.09_PT010H.grib2 2026-05-03 08:45 433K
20260503T06Z_MSC_RDPS_DewPoint_AGL-2m_RLatLon0.09_PT010H.grib2 2026-05-03 08:45 405K
20260503T06Z_MSC_RDPS_DownwardLongwaveRadiationFlux-Accum_Sfc_RLatLon0.09_PT010H.grib2 2026-05-03 08:45 448K
20260503T06Z_MSC_RDPS_DownwardShortwaveRadiationFlux-Accum_NTAtm_RLatLon0.09_PT010H.grib2 2026-05-03 08:45 98K
20260503T06Z_MSC_RDPS_DownwardShortwaveRadiationFlux-Accum_Sfc_RLatLon0.09_PT010H.grib2 2026-05-03 08:45 416K
20260503T06Z_MSC_RDPS_FreezingRain-Accum1h_Sfc_RLatLon0.09_PT010H.grib2 2026-05-03 08:45 15K
20260503T06Z_MSC_RDPS_FreezingRain-Accum_Sfc_RLatLon0.09_PT010H.grib2 2026-05-03 08:45 78K
20260503T06Z_MSC_RDPS_GeopotentialHeight_IsbL-0001_RLatLon0.09_PT010H.grib2 2026-05-03 08:45 346K
20260503T06Z_MSC_RDPS_GeopotentialHeight_IsbL-0005_RLatLon0.09_PT010H.grib2 2026-05-03 08:45 301K
20260503T06Z_MSC_RDPS_GeopotentialHeight_IsbL-0010_RLatLon0.09_PT010H.grib2 2026-05-03 08:45 301K
20260503T06Z_MSC_RDPS_GeopotentialHeight_IsbL-0020_RLatLon0.09_PT010H.grib2 2026-05-03 08:45 397K
20260503T06Z_MSC_RDPS_GeopotentialHeight_IsbL-0030_RLatLon0.09_PT010H.grib2 2026-05-03 08:45 400K
20260503T06Z_MSC_RDPS_GeopotentialHeight_IsbL-0050_RLatLon0.09_PT010H.grib2 2026-05-03 08:45 307K
20260503T06Z_MSC_RDPS_GeopotentialHeight_IsbL-0100_RLatLon0.09_PT010H.grib2 2026-05-03 08:45 285K
20260503T06Z_MSC_RDPS_GeopotentialHeight_IsbL-0150_RLatLon0.09_PT010H.grib2 2026-05-03 08:45 228K
20260503T06Z_MSC_RDPS_GeopotentialHeight_IsbL-0175_RLatLon0.09_PT010H.grib2 2026-05-03 08:45 231K
20260503T06Z_MSC_RDPS_GeopotentialHeight_IsbL-0200_RLatLon0.09_PT010H.grib2 2026-05-03 08:45 234K
20260503T06Z_MSC_RDPS_GeopotentialHeight_IsbL-0225_RLatLon0.09_PT010H.grib2 2026-05-03 08:45 264K
20260503T06Z_MSC_RDPS_GeopotentialHeight_IsbL-0250_RLatLon0.09_PT010H.grib2 2026-05-03 08:45 265K
20260503T06Z_MSC_RDPS_GeopotentialHeight_IsbL-0275_RLatLon0.09_PT010H.grib2 2026-05-03 08:45 234K
20260503T06Z_MSC_RDPS_GeopotentialHeight_IsbL-0300_RLatLon0.09_PT010H.grib2 2026-05-03 08:45 234K
20260503T06Z_MSC_RDPS_GeopotentialHeight_IsbL-0350_RLatLon0.09_PT010H.grib2 2026-05-03 08:45 230K
20260503T06Z_MSC_RDPS_GeopotentialHeight_IsbL-0400_RLatLon0.09_PT010H.grib2 2026-05-03 08:45 227K
20260503T06Z_MSC_RDPS_GeopotentialHeight_IsbL-0450_RLatLon0.09_PT010H.grib2 2026-05-03 08:45 297K
20260503T06Z_MSC_RDPS_GeopotentialHeight_IsbL-0500_RLatLon0.09_PT010H.grib2 2026-05-03 08:45 292K
20260503T06Z_MSC_RDPS_GeopotentialHeight_IsbL-0550_RLatLon0.09_PT010H.grib2 2026-05-03 08:45 288K
20260503T06Z_MSC_RDPS_GeopotentialHeight_IsbL-0600_RLatLon0.09_PT010H.grib2 2026-05-03 08:45 285K
20260503T06Z_MSC_RDPS_GeopotentialHeight_IsbL-0650_RLatLon0.09_PT010H.grib2 2026-05-03 08:45 255K
20260503T06Z_MSC_RDPS_GeopotentialHeight_IsbL-0700_RLatLon0.09_PT010H.grib2 2026-05-03 08:45 254K
20260503T06Z_MSC_RDPS_GeopotentialHeight_IsbL-0750_RLatLon0.09_PT010H.grib2 2026-05-03 08:45 258K
20260503T06Z_MSC_RDPS_GeopotentialHeight_IsbL-0800_RLatLon0.09_PT010H.grib2 2026-05-03 08:45 350K
20260503T06Z_MSC_RDPS_GeopotentialHeight_IsbL-0850_RLatLon0.09_PT010H.grib2 2026-05-03 08:45 360K
20260503T06Z_MSC_RDPS_GeopotentialHeight_IsbL-0875_RLatLon0.09_PT010H.grib2 2026-05-03 08:45 363K
20260503T06Z_MSC_RDPS_GeopotentialHeight_IsbL-0900_RLatLon0.09_PT010H.grib2 2026-05-03 08:45 366K
20260503T06Z_MSC_RDPS_GeopotentialHeight_IsbL-0925_RLatLon0.09_PT010H.grib2 2026-05-03 08:45 370K
20260503T06Z_MSC_RDPS_GeopotentialHeight_IsbL-0950_RLatLon0.09_PT010H.grib2 2026-05-03 08:45 373K
20260503T06Z_MSC_RDPS_GeopotentialHeight_IsbL-0970_RLatLon0.09_PT010H.grib2 2026-05-03 08:45 380K
20260503T06Z_MSC_RDPS_GeopotentialHeight_IsbL-0985_RLatLon0.09_PT010H.grib2 2026-05-03 08:45 389K
20260503T06Z_MSC_RDPS_GeopotentialHeight_IsbL-1000_RLatLon0.09_PT010H.grib2 2026-05-03 08:45 402K
20260503T06Z_MSC_RDPS_GeopotentialHeight_IsbL-1015_RLatLon0.09_PT010H.grib2 2026-05-03 08:45 418K
20260503T06Z_MSC_RDPS_Humidex_Sfc_RLatLon0.09_PT010H.grib2 2026-05-03 08:45 2.4M
20260503T06Z_MSC_RDPS_IcePellets-Accum1h_Sfc_RLatLon0.09_PT010H.grib2 2026-05-03 08:45 2.8K
20260503T06Z_MSC_RDPS_IcePellets-Accum_Sfc_RLatLon0.09_PT010H.grib2 2026-05-03 08:45 5.7K
20260503T06Z_MSC_RDPS_KIndex_Sfc_RLatLon0.09_PT010H.grib2 2026-05-03 08:45 2.5M
20260503T06Z_MSC_RDPS_LatentHeatNetFlux_Sfc_RLatLon0.09_PT010H.grib2 2026-05-03 08:45 307K
20260503T06Z_MSC_RDPS_LiftedIndex-MU-VT_IsbL-0500_RLatLon0.09_PT010H.grib2 2026-05-03 08:45 2.4M
20260503T06Z_MSC_RDPS_NetLongwaveRadiationFlux-Accum_Sfc_RLatLon0.09_PT010H.grib2 2026-05-03 08:45 589K
20260503T06Z_MSC_RDPS_NetShortwaveRadiationFlux-Accum_Sfc_RLatLon0.09_PT010H.grib2 2026-05-03 08:45 404K
20260503T06Z_MSC_RDPS_PlanetaryBoundaryLayerHeight_Sfc_RLatLon0.09_PT010H.grib2 2026-05-03 08:45 1.0M
20260503T06Z_MSC_RDPS_Precip-Accum1h_Sfc_RLatLon0.09_PT010H.grib2 2026-05-03 08:45 1.3M
20260503T06Z_MSC_RDPS_Precip-Accum_Sfc_RLatLon0.09_PT010H.grib2 2026-05-03 08:45 1.6M
20260503T06Z_MSC_RDPS_PrecipRate_Sfc_RLatLon0.09_PT010H.grib2 2026-05-03 08:45 234K
20260503T06Z_MSC_RDPS_PrecipType-Instant_Sfc_RLatLon0.09_PT010H.grib2 2026-05-03 08:45 571K
20260503T06Z_MSC_RDPS_Pressure-Trend3h_Sfc_RLatLon0.09_PT010H.grib2 2026-05-03 08:45 1.2M
20260503T06Z_MSC_RDPS_Pressure_MSL_RLatLon0.09_PT010H.grib2 2026-05-03 08:45 331K
20260503T06Z_MSC_RDPS_Pressure_PVU-1.5_RLatLon0.09_PT010H.grib2 2026-05-03 08:45 2.3M
20260503T06Z_MSC_RDPS_Pressure_PVU-1_RLatLon0.09_PT010H.grib2 2026-05-03 08:45 2.4M
20260503T06Z_MSC_RDPS_Pressure_PVU-2_RLatLon0.09_PT010H.grib2 2026-05-03 08:45 2.4M
20260503T06Z_MSC_RDPS_Pressure_Sfc_RLatLon0.09_PT010H.grib2 2026-05-03 08:45 501K
20260503T06Z_MSC_RDPS_RadiativeTemp_Sfc_RLatLon0.09_PT010H.grib2 2026-05-03 08:45 320K
20260503T06Z_MSC_RDPS_Rain-Accum1h_Sfc_RLatLon0.09_PT010H.grib2 2026-05-03 08:45 703K
20260503T06Z_MSC_RDPS_Rain-Accum_Sfc_RLatLon0.09_PT010H.grib2 2026-05-03 08:45 1.2M
20260503T06Z_MSC_RDPS_RelativeHumidity_AGL-2m_RLatLon0.09_PT010H.grib2 2026-05-03 08:45 1.0M
20260503T06Z_MSC_RDPS_RelativeHumidity_IsbL-0010_RLatLon0.09_PT010H.grib2 2026-05-03 08:45 633K
20260503T06Z_MSC_RDPS_RelativeHumidity_IsbL-0020_RLatLon0.09_PT010H.grib2 2026-05-03 08:45 672K
20260503T06Z_MSC_RDPS_RelativeHumidity_IsbL-0030_RLatLon0.09_PT010H.grib2 2026-05-03 08:45 600K
20260503T06Z_MSC_RDPS_RelativeHumidity_IsbL-0050_RLatLon0.09_PT010H.grib2 2026-05-03 08:45 303K
20260503T06Z_MSC_RDPS_RelativeHumidity_IsbL-0100_RLatLon0.09_PT010H.grib2 2026-05-03 08:45 381K
20260503T06Z_MSC_RDPS_RelativeHumidity_IsbL-0150_RLatLon0.09_PT010H.grib2 2026-05-03 08:45 414K
20260503T06Z_MSC_RDPS_RelativeHumidity_IsbL-0175_RLatLon0.09_PT010H.grib2 2026-05-03 08:45 476K
20260503T06Z_MSC_RDPS_RelativeHumidity_IsbL-0200_RLatLon0.09_PT010H.grib2 2026-05-03 08:45 550K
20260503T06Z_MSC_RDPS_RelativeHumidity_IsbL-0225_RLatLon0.09_PT010H.grib2 2026-05-03 08:45 618K
20260503T06Z_MSC_RDPS_RelativeHumidity_IsbL-0250_RLatLon0.09_PT010H.grib2 2026-05-03 08:45 680K
20260503T06Z_MSC_RDPS_RelativeHumidity_IsbL-0275_RLatLon0.09_PT010H.grib2 2026-05-03 08:45 705K
20260503T06Z_MSC_RDPS_RelativeHumidity_IsbL-0300_RLatLon0.09_PT010H.grib2 2026-05-03 08:45 746K
20260503T06Z_MSC_RDPS_RelativeHumidity_IsbL-0350_RLatLon0.09_PT010H.grib2 2026-05-03 08:45 771K
20260503T06Z_MSC_RDPS_RelativeHumidity_IsbL-0400_RLatLon0.09_PT010H.grib2 2026-05-03 08:45 779K
20260503T06Z_MSC_RDPS_RelativeHumidity_IsbL-0450_RLatLon0.09_PT010H.grib2 2026-05-03 08:45 781K
20260503T06Z_MSC_RDPS_RelativeHumidity_IsbL-0500_RLatLon0.09_PT010H.grib2 2026-05-03 08:45 787K
20260503T06Z_MSC_RDPS_RelativeHumidity_IsbL-0550_RLatLon0.09_PT010H.grib2 2026-05-03 08:45 818K
20260503T06Z_MSC_RDPS_RelativeHumidity_IsbL-0600_RLatLon0.09_PT010H.grib2 2026-05-03 08:45 831K
20260503T06Z_MSC_RDPS_RelativeHumidity_IsbL-0650_RLatLon0.09_PT010H.grib2 2026-05-03 08:45 844K
20260503T06Z_MSC_RDPS_RelativeHumidity_IsbL-0700_RLatLon0.09_PT010H.grib2 2026-05-03 08:45 874K
20260503T06Z_MSC_RDPS_RelativeHumidity_IsbL-0750_RLatLon0.09_PT010H.grib2 2026-05-03 08:45 917K
20260503T06Z_MSC_RDPS_RelativeHumidity_IsbL-0800_RLatLon0.09_PT010H.grib2 2026-05-03 08:45 1.0M
20260503T06Z_MSC_RDPS_RelativeHumidity_IsbL-0850_RLatLon0.09_PT010H.grib2 2026-05-03 08:45 1.0M
20260503T06Z_MSC_RDPS_RelativeHumidity_IsbL-0875_RLatLon0.09_PT010H.grib2 2026-05-03 08:45 1.1M
20260503T06Z_MSC_RDPS_RelativeHumidity_IsbL-0900_RLatLon0.09_PT010H.grib2 2026-05-03 08:45 1.1M
20260503T06Z_MSC_RDPS_RelativeHumidity_IsbL-0925_RLatLon0.09_PT010H.grib2 2026-05-03 08:45 1.1M
20260503T06Z_MSC_RDPS_RelativeHumidity_IsbL-0950_RLatLon0.09_PT010H.grib2 2026-05-03 08:45 1.1M
20260503T06Z_MSC_RDPS_RelativeHumidity_IsbL-0970_RLatLon0.09_PT010H.grib2 2026-05-03 08:45 1.1M
20260503T06Z_MSC_RDPS_RelativeHumidity_IsbL-0985_RLatLon0.09_PT010H.grib2 2026-05-03 08:45 1.0M
20260503T06Z_MSC_RDPS_RelativeHumidity_IsbL-1000_RLatLon0.09_PT010H.grib2 2026-05-03 08:45 1.0M
20260503T06Z_MSC_RDPS_RelativeHumidity_IsbL-1015_RLatLon0.09_PT010H.grib2 2026-05-03 08:45 1.0M
20260503T06Z_MSC_RDPS_Runoff-Accum_Sfc_RLatLon0.09_PT010H.grib2 2026-05-03 08:45 35K
20260503T06Z_MSC_RDPS_SWEATIndex_Sfc_RLatLon0.09_PT010H.grib2 2026-05-03 08:45 2.4M
20260503T06Z_MSC_RDPS_SeeingIndex_EAtm_RLatLon0.09_PT010H.grib2 2026-05-03 08:45 1.0M
20260503T06Z_MSC_RDPS_SensibleHeatNetFlux_Sfc_RLatLon0.09_PT010H.grib2 2026-05-03 08:45 366K
20260503T06Z_MSC_RDPS_ShowalterIndex_IsbL-0500_RLatLon0.09_PT010H.grib2 2026-05-03 08:45 2.6M
20260503T06Z_MSC_RDPS_SkyTransparencyIndex_EAtm_RLatLon0.09_PT010H.grib2 2026-05-03 08:45 716K
20260503T06Z_MSC_RDPS_Snow-Accum1h_Sfc_RLatLon0.09_PT010H.grib2 2026-05-03 08:45 502K
20260503T06Z_MSC_RDPS_Snow-Accum_Sfc_RLatLon0.09_PT010H.grib2 2026-05-03 08:45 624K
20260503T06Z_MSC_RDPS_SnowDensity_Sfc_RLatLon0.09_PT010H.grib2 2026-05-03 08:45 166K
20260503T06Z_MSC_RDPS_SnowDepth_Sfc_RLatLon0.09_PT010H.grib2 2026-05-03 08:45 647K
20260503T06Z_MSC_RDPS_SoilTemp_DBS-0to10cm_RLatLon0.09_PT010H.grib2 2026-05-03 08:45 209K
20260503T06Z_MSC_RDPS_SoilTemp_Sfc_RLatLon0.09_PT010H.grib2 2026-05-03 08:45 292K
20260503T06Z_MSC_RDPS_SoilVolumetricIceContent_Sfc_RLatLon0.09_PT010H.grib2 2026-05-03 08:45 157K
20260503T06Z_MSC_RDPS_SoilVolumetricWaterContent_DBS-0to10cm_RLatLon0.09_PT010H.grib2 2026-05-03 08:45 273K
20260503T06Z_MSC_RDPS_SoilVolumetricWaterContent_DBS-0to1cm_RLatLon0.09_PT010H.grib2 2026-05-03 08:45 335K
20260503T06Z_MSC_RDPS_SpecificHumidity_AGL-120m_RLatLon0.09_PT010H.grib2 2026-05-03 08:45 502K
20260503T06Z_MSC_RDPS_SpecificHumidity_AGL-2m_RLatLon0.09_PT010H.grib2 2026-05-03 08:45 670K
20260503T06Z_MSC_RDPS_SpecificHumidity_AGL-40m_RLatLon0.09_PT010H.grib2 2026-05-03 08:45 507K
20260503T06Z_MSC_RDPS_SpecificHumidity_AGL-80m_RLatLon0.09_PT010H.grib2 2026-05-03 08:45 504K
20260503T06Z_MSC_RDPS_SpecificHumidity_IsbL-0001_RLatLon0.09_PT010H.grib2 2026-05-03 08:45 400K
20260503T06Z_MSC_RDPS_SpecificHumidity_IsbL-0005_RLatLon0.09_PT010H.grib2 2026-05-03 08:45 364K
20260503T06Z_MSC_RDPS_SpecificHumidity_IsbL-0010_RLatLon0.09_PT010H.grib2 2026-05-03 08:45 394K
20260503T06Z_MSC_RDPS_SpecificHumidity_IsbL-0020_RLatLon0.09_PT010H.grib2 2026-05-03 08:45 379K
20260503T06Z_MSC_RDPS_SpecificHumidity_IsbL-0030_RLatLon0.09_PT010H.grib2 2026-05-03 08:45 372K
20260503T06Z_MSC_RDPS_SpecificHumidity_IsbL-0050_RLatLon0.09_PT010H.grib2 2026-05-03 08:45 487K
20260503T06Z_MSC_RDPS_SpecificHumidity_IsbL-0100_RLatLon0.09_PT010H.grib2 2026-05-03 08:45 532K
20260503T06Z_MSC_RDPS_SpecificHumidity_IsbL-0150_RLatLon0.09_PT010H.grib2 2026-05-03 08:45 452K
20260503T06Z_MSC_RDPS_SpecificHumidity_IsbL-0175_RLatLon0.09_PT010H.grib2 2026-05-03 08:45 439K
20260503T06Z_MSC_RDPS_SpecificHumidity_IsbL-0200_RLatLon0.09_PT010H.grib2 2026-05-03 08:45 453K
20260503T06Z_MSC_RDPS_SpecificHumidity_IsbL-0225_RLatLon0.09_PT010H.grib2 2026-05-03 08:45 456K
20260503T06Z_MSC_RDPS_SpecificHumidity_IsbL-0250_RLatLon0.09_PT010H.grib2 2026-05-03 08:45 558K
20260503T06Z_MSC_RDPS_SpecificHumidity_IsbL-0275_RLatLon0.09_PT010H.grib2 2026-05-03 08:45 474K
20260503T06Z_MSC_RDPS_SpecificHumidity_IsbL-0300_RLatLon0.09_PT010H.grib2 2026-05-03 08:45 544K
20260503T06Z_MSC_RDPS_SpecificHumidity_IsbL-0350_RLatLon0.09_PT010H.grib2 2026-05-03 08:45 541K
20260503T06Z_MSC_RDPS_SpecificHumidity_IsbL-0400_RLatLon0.09_PT010H.grib2 2026-05-03 08:45 517K
20260503T06Z_MSC_RDPS_SpecificHumidity_IsbL-0450_RLatLon0.09_PT010H.grib2 2026-05-03 08:45 564K
20260503T06Z_MSC_RDPS_SpecificHumidity_IsbL-0500_RLatLon0.09_PT010H.grib2 2026-05-03 08:45 498K
20260503T06Z_MSC_RDPS_SpecificHumidity_IsbL-0550_RLatLon0.09_PT010H.grib2 2026-05-03 08:45 552K
20260503T06Z_MSC_RDPS_SpecificHumidity_IsbL-0600_RLatLon0.09_PT010H.grib2 2026-05-03 08:45 618K
20260503T06Z_MSC_RDPS_SpecificHumidity_IsbL-0650_RLatLon0.09_PT010H.grib2 2026-05-03 08:45 535K
20260503T06Z_MSC_RDPS_SpecificHumidity_IsbL-0700_RLatLon0.09_PT010H.grib2 2026-05-03 08:45 581K
20260503T06Z_MSC_RDPS_SpecificHumidity_IsbL-0750_RLatLon0.09_PT010H.grib2 2026-05-03 08:45 638K
20260503T06Z_MSC_RDPS_SpecificHumidity_IsbL-0800_RLatLon0.09_PT010H.grib2 2026-05-03 08:45 726K
20260503T06Z_MSC_RDPS_SpecificHumidity_IsbL-0850_RLatLon0.09_PT010H.grib2 2026-05-03 08:45 808K
20260503T06Z_MSC_RDPS_SpecificHumidity_IsbL-0875_RLatLon0.09_PT010H.grib2 2026-05-03 08:45 836K
20260503T06Z_MSC_RDPS_SpecificHumidity_IsbL-0900_RLatLon0.09_PT010H.grib2 2026-05-03 08:45 848K
20260503T06Z_MSC_RDPS_SpecificHumidity_IsbL-0925_RLatLon0.09_PT010H.grib2 2026-05-03 08:45 848K
20260503T06Z_MSC_RDPS_SpecificHumidity_IsbL-0950_RLatLon0.09_PT010H.grib2 2026-05-03 08:45 714K
20260503T06Z_MSC_RDPS_SpecificHumidity_IsbL-0970_RLatLon0.09_PT010H.grib2 2026-05-03 08:45 708K
20260503T06Z_MSC_RDPS_SpecificHumidity_IsbL-0985_RLatLon0.09_PT010H.grib2 2026-05-03 08:45 702K
20260503T06Z_MSC_RDPS_SpecificHumidity_IsbL-1000_RLatLon0.09_PT010H.grib2 2026-05-03 08:45 696K
20260503T06Z_MSC_RDPS_SpecificHumidity_IsbL-1015_RLatLon0.09_PT010H.grib2 2026-05-03 08:45 684K
20260503T06Z_MSC_RDPS_SpecificHumidity_Sfc_RLatLon0.09_PT010H.grib2 2026-05-03 08:45 334K
20260503T06Z_MSC_RDPS_StormRelativeHelicity_EtaL-10000_RLatLon0.09_PT010H.grib2 2026-05-03 08:45 1.0M
20260503T06Z_MSC_RDPS_StormSeverityIndex_EtaL-10000_RLatLon0.09_PT010H.grib2 2026-05-03 08:45 1.2M
20260503T06Z_MSC_RDPS_Thickness_IsbL-0850to0700_RLatLon0.09_PT010H.grib2 2026-05-03 08:45 177K
20260503T06Z_MSC_RDPS_Thickness_IsbL-1000to0500_RLatLon0.09_PT010H.grib2 2026-05-03 08:45 198K
20260503T06Z_MSC_RDPS_Thickness_IsbL-1000to0850_RLatLon0.09_PT010H.grib2 2026-05-03 08:45 267K
20260503T06Z_MSC_RDPS_TotalCloudCover_Sfc_RLatLon0.09_PT010H.grib2 2026-05-03 08:45 655K
20260503T06Z_MSC_RDPS_TotalTotalsIndex_Sfc_RLatLon0.09_PT010H.grib2 2026-05-03 08:45 2.4M
20260503T06Z_MSC_RDPS_UVIndex-ClearSky_Sfc_RLatLon0.09_PT010H.grib2 2026-05-03 08:45 205K
20260503T06Z_MSC_RDPS_UVIndex_Sfc_RLatLon0.09_PT010H.grib2 2026-05-03 08:45 478K
20260503T06Z_MSC_RDPS_UpwardLongwaveRadiationFlux_NTAtm_RLatLon0.09_PT010H.grib2 2026-05-03 08:45 494K
20260503T06Z_MSC_RDPS_UpwardShortwaveRadiationFlux_NTAtm_RLatLon0.09_PT010H.grib2 2026-05-03 08:45 519K
20260503T06Z_MSC_RDPS_VerticalVelocity_IsbL-0250_RLatLon0.09_PT010H.grib2 2026-05-03 08:45 553K
20260503T06Z_MSC_RDPS_VerticalVelocity_IsbL-0500_RLatLon0.09_PT010H.grib2 2026-05-03 08:45 676K
20260503T06Z_MSC_RDPS_VerticalVelocity_IsbL-0700_RLatLon0.09_PT010H.grib2 2026-05-03 08:45 593K
20260503T06Z_MSC_RDPS_VerticalVelocity_IsbL-0850_RLatLon0.09_PT010H.grib2 2026-05-03 08:45 707K
20260503T06Z_MSC_RDPS_VerticalWindShear_EtaL-6500_RLatLon0.09_PT010H.grib2 2026-05-03 08:45 1.2M
20260503T06Z_MSC_RDPS_WindChill_Sfc_RLatLon0.09_PT010H.grib2 2026-05-03 08:45 1.2M
20260503T06Z_MSC_RDPS_WindDir_AGL-10m_RLatLon0.09_PT010H.grib2 2026-05-03 08:45 1.0M
20260503T06Z_MSC_RDPS_WindDir_AGL-120m_RLatLon0.09_PT010H.grib2 2026-05-03 08:45 621K
20260503T06Z_MSC_RDPS_WindDir_AGL-40m_RLatLon0.09_PT010H.grib2 2026-05-03 08:45 643K
20260503T06Z_MSC_RDPS_WindDir_AGL-80m_RLatLon0.09_PT010H.grib2 2026-05-03 08:45 631K
20260503T06Z_MSC_RDPS_WindDir_IsbL-0001_RLatLon0.09_PT010H.grib2 2026-05-03 08:45 297K
20260503T06Z_MSC_RDPS_WindDir_IsbL-0005_RLatLon0.09_PT010H.grib2 2026-05-03 08:45 373K
20260503T06Z_MSC_RDPS_WindDir_IsbL-0010_RLatLon0.09_PT010H.grib2 2026-05-03 08:45 380K
20260503T06Z_MSC_RDPS_WindDir_IsbL-0020_RLatLon0.09_PT010H.grib2 2026-05-03 08:45 418K
20260503T06Z_MSC_RDPS_WindDir_IsbL-0030_RLatLon0.09_PT010H.grib2 2026-05-03 08:45 413K
20260503T06Z_MSC_RDPS_WindDir_IsbL-0050_RLatLon0.09_PT010H.grib2 2026-05-03 08:45 422K
20260503T06Z_MSC_RDPS_WindDir_IsbL-0100_RLatLon0.09_PT010H.grib2 2026-05-03 08:45 412K
20260503T06Z_MSC_RDPS_WindDir_IsbL-0150_RLatLon0.09_PT010H.grib2 2026-05-03 08:45 416K
20260503T06Z_MSC_RDPS_WindDir_IsbL-0175_RLatLon0.09_PT010H.grib2 2026-05-03 08:45 432K
20260503T06Z_MSC_RDPS_WindDir_IsbL-0200_RLatLon0.09_PT010H.grib2 2026-05-03 08:45 448K
20260503T06Z_MSC_RDPS_WindDir_IsbL-0225_RLatLon0.09_PT010H.grib2 2026-05-03 08:45 455K
20260503T06Z_MSC_RDPS_WindDir_IsbL-0250_RLatLon0.09_PT010H.grib2 2026-05-03 08:45 459K
20260503T06Z_MSC_RDPS_WindDir_IsbL-0275_RLatLon0.09_PT010H.grib2 2026-05-03 08:45 479K
20260503T06Z_MSC_RDPS_WindDir_IsbL-0300_RLatLon0.09_PT010H.grib2 2026-05-03 08:45 483K
20260503T06Z_MSC_RDPS_WindDir_IsbL-0350_RLatLon0.09_PT010H.grib2 2026-05-03 08:45 502K
20260503T06Z_MSC_RDPS_WindDir_IsbL-0400_RLatLon0.09_PT010H.grib2 2026-05-03 08:45 517K
20260503T06Z_MSC_RDPS_WindDir_IsbL-0450_RLatLon0.09_PT010H.grib2 2026-05-03 08:45 530K
20260503T06Z_MSC_RDPS_WindDir_IsbL-0500_RLatLon0.09_PT010H.grib2 2026-05-03 08:45 535K
20260503T06Z_MSC_RDPS_WindDir_IsbL-0550_RLatLon0.09_PT010H.grib2 2026-05-03 08:45 544K
20260503T06Z_MSC_RDPS_WindDir_IsbL-0600_RLatLon0.09_PT010H.grib2 2026-05-03 08:45 566K
20260503T06Z_MSC_RDPS_WindDir_IsbL-0650_RLatLon0.09_PT010H.grib2 2026-05-03 08:45 602K
20260503T06Z_MSC_RDPS_WindDir_IsbL-0700_RLatLon0.09_PT010H.grib2 2026-05-03 08:45 649K
20260503T06Z_MSC_RDPS_WindDir_IsbL-0750_RLatLon0.09_PT010H.grib2 2026-05-03 08:45 698K
20260503T06Z_MSC_RDPS_WindDir_IsbL-0800_RLatLon0.09_PT010H.grib2 2026-05-03 08:45 769K
20260503T06Z_MSC_RDPS_WindDir_IsbL-0850_RLatLon0.09_PT010H.grib2 2026-05-03 08:45 859K
20260503T06Z_MSC_RDPS_WindDir_IsbL-0875_RLatLon0.09_PT010H.grib2 2026-05-03 08:45 896K
20260503T06Z_MSC_RDPS_WindDir_IsbL-0900_RLatLon0.09_PT010H.grib2 2026-05-03 08:45 909K
20260503T06Z_MSC_RDPS_WindDir_IsbL-0925_RLatLon0.09_PT010H.grib2 2026-05-03 08:45 916K
20260503T06Z_MSC_RDPS_WindDir_IsbL-0950_RLatLon0.09_PT010H.grib2 2026-05-03 08:45 918K
20260503T06Z_MSC_RDPS_WindDir_IsbL-0970_RLatLon0.09_PT010H.grib2 2026-05-03 08:45 926K
20260503T06Z_MSC_RDPS_WindDir_IsbL-0985_RLatLon0.09_PT010H.grib2 2026-05-03 08:45 936K
20260503T06Z_MSC_RDPS_WindDir_IsbL-1000_RLatLon0.09_PT010H.grib2 2026-05-03 08:45 950K
20260503T06Z_MSC_RDPS_WindDir_IsbL-1015_RLatLon0.09_PT010H.grib2 2026-05-03 08:45 967K
20260503T06Z_MSC_RDPS_WindGust-Max_AGL-10m_RLatLon0.09_PT010H.grib2 2026-05-03 08:45 1.0M
20260503T06Z_MSC_RDPS_WindGust-Min_AGL-10m_RLatLon0.09_PT010H.grib2 2026-05-03 08:45 1.0M
20260503T06Z_MSC_RDPS_WindGust_AGL-10m_RLatLon0.09_PT010H.grib2 2026-05-03 08:45 1.0M
20260503T06Z_MSC_RDPS_WindSpeed_AGL-10m_RLatLon0.09_PT010H.grib2 2026-05-03 08:45 848K
20260503T06Z_MSC_RDPS_WindSpeed_AGL-120m_RLatLon0.09_PT010H.grib2 2026-05-03 08:45 541K
20260503T06Z_MSC_RDPS_WindSpeed_AGL-40m_RLatLon0.09_PT010H.grib2 2026-05-03 08:45 545K
20260503T06Z_MSC_RDPS_WindSpeed_AGL-80m_RLatLon0.09_PT010H.grib2 2026-05-03 08:45 541K
20260503T06Z_MSC_RDPS_WindSpeed_IsbL-0001_RLatLon0.09_PT010H.grib2 2026-05-03 08:45 250K
20260503T06Z_MSC_RDPS_WindSpeed_IsbL-0005_RLatLon0.09_PT010H.grib2 2026-05-03 08:45 335K
20260503T06Z_MSC_RDPS_WindSpeed_IsbL-0010_RLatLon0.09_PT010H.grib2 2026-05-03 08:45 387K
20260503T06Z_MSC_RDPS_WindSpeed_IsbL-0020_RLatLon0.09_PT010H.grib2 2026-05-03 08:45 408K
20260503T06Z_MSC_RDPS_WindSpeed_IsbL-0030_RLatLon0.09_PT010H.grib2 2026-05-03 08:45 315K
20260503T06Z_MSC_RDPS_WindSpeed_IsbL-0050_RLatLon0.09_PT010H.grib2 2026-05-03 08:45 345K
20260503T06Z_MSC_RDPS_WindSpeed_IsbL-0100_RLatLon0.09_PT010H.grib2 2026-05-03 08:45 477K
20260503T06Z_MSC_RDPS_WindSpeed_IsbL-0150_RLatLon0.09_PT010H.grib2 2026-05-03 08:45 381K
20260503T06Z_MSC_RDPS_WindSpeed_IsbL-0175_RLatLon0.09_PT010H.grib2 2026-05-03 08:45 424K
20260503T06Z_MSC_RDPS_WindSpeed_IsbL-0200_RLatLon0.09_PT010H.grib2 2026-05-03 08:45 442K
20260503T06Z_MSC_RDPS_WindSpeed_IsbL-0225_RLatLon0.09_PT010H.grib2 2026-05-03 08:45 451K
20260503T06Z_MSC_RDPS_WindSpeed_IsbL-0250_RLatLon0.09_PT010H.grib2 2026-05-03 08:45 454K
20260503T06Z_MSC_RDPS_WindSpeed_IsbL-0275_RLatLon0.09_PT010H.grib2 2026-05-03 08:45 471K
20260503T06Z_MSC_RDPS_WindSpeed_IsbL-0300_RLatLon0.09_PT010H.grib2 2026-05-03 08:45 466K
20260503T06Z_MSC_RDPS_WindSpeed_IsbL-0350_RLatLon0.09_PT010H.grib2 2026-05-03 08:45 477K
20260503T06Z_MSC_RDPS_WindSpeed_IsbL-0400_RLatLon0.09_PT010H.grib2 2026-05-03 08:45 463K
20260503T06Z_MSC_RDPS_WindSpeed_IsbL-0450_RLatLon0.09_PT010H.grib2 2026-05-03 08:45 463K
20260503T06Z_MSC_RDPS_WindSpeed_IsbL-0500_RLatLon0.09_PT010H.grib2 2026-05-03 08:45 462K
20260503T06Z_MSC_RDPS_WindSpeed_IsbL-0550_RLatLon0.09_PT010H.grib2 2026-05-03 08:45 462K
20260503T06Z_MSC_RDPS_WindSpeed_IsbL-0600_RLatLon0.09_PT010H.grib2 2026-05-03 08:45 589K
20260503T06Z_MSC_RDPS_WindSpeed_IsbL-0650_RLatLon0.09_PT010H.grib2 2026-05-03 08:45 609K
20260503T06Z_MSC_RDPS_WindSpeed_IsbL-0700_RLatLon0.09_PT010H.grib2 2026-05-03 08:45 635K
20260503T06Z_MSC_RDPS_WindSpeed_IsbL-0750_RLatLon0.09_PT010H.grib2 2026-05-03 08:45 712K
20260503T06Z_MSC_RDPS_WindSpeed_IsbL-0800_RLatLon0.09_PT010H.grib2 2026-05-03 08:45 763K
20260503T06Z_MSC_RDPS_WindSpeed_IsbL-0850_RLatLon0.09_PT010H.grib2 2026-05-03 08:45 825K
20260503T06Z_MSC_RDPS_WindSpeed_IsbL-0875_RLatLon0.09_PT010H.grib2 2026-05-03 08:45 849K
20260503T06Z_MSC_RDPS_WindSpeed_IsbL-0900_RLatLon0.09_PT010H.grib2 2026-05-03 08:45 859K
20260503T06Z_MSC_RDPS_WindSpeed_IsbL-0925_RLatLon0.09_PT010H.grib2 2026-05-03 08:45 868K
20260503T06Z_MSC_RDPS_WindSpeed_IsbL-0950_RLatLon0.09_PT010H.grib2 2026-05-03 08:45 863K
20260503T06Z_MSC_RDPS_WindSpeed_IsbL-0970_RLatLon0.09_PT010H.grib2 2026-05-03 08:45 865K
20260503T06Z_MSC_RDPS_WindSpeed_IsbL-0985_RLatLon0.09_PT010H.grib2 2026-05-03 08:45 861K
20260503T06Z_MSC_RDPS_WindSpeed_IsbL-1000_RLatLon0.09_PT010H.grib2 2026-05-03 08:45 856K
20260503T06Z_MSC_RDPS_WindSpeed_IsbL-1015_RLatLon0.09_PT010H.grib2 2026-05-03 08:45 846K
20260503T06Z_MSC_RDPS_WindU_AGL-10m_RLatLon0.09_PT010H.grib2 2026-05-03 08:45 437K
20260503T06Z_MSC_RDPS_WindU_AGL-120m_RLatLon0.09_PT010H.grib2 2026-05-03 08:45 420K
20260503T06Z_MSC_RDPS_WindU_AGL-40m_RLatLon0.09_PT010H.grib2 2026-05-03 08:45 540K
20260503T06Z_MSC_RDPS_WindU_AGL-80m_RLatLon0.09_PT010H.grib2 2026-05-03 08:45 539K
20260503T06Z_MSC_RDPS_WindU_IsbL-0001_RLatLon0.09_PT010H.grib2 2026-05-03 08:45 289K
20260503T06Z_MSC_RDPS_WindU_IsbL-0005_RLatLon0.09_PT010H.grib2 2026-05-03 08:45 274K
20260503T06Z_MSC_RDPS_WindU_IsbL-0010_RLatLon0.09_PT010H.grib2 2026-05-03 08:45 287K
20260503T06Z_MSC_RDPS_WindU_IsbL-0020_RLatLon0.09_PT010H.grib2 2026-05-03 08:45 305K
20260503T06Z_MSC_RDPS_WindU_IsbL-0030_RLatLon0.09_PT010H.grib2 2026-05-03 08:45 347K
20260503T06Z_MSC_RDPS_WindU_IsbL-0050_RLatLon0.09_PT010H.grib2 2026-05-03 08:45 342K
20260503T06Z_MSC_RDPS_WindU_IsbL-0100_RLatLon0.09_PT010H.grib2 2026-05-03 08:45 431K
20260503T06Z_MSC_RDPS_WindU_IsbL-0150_RLatLon0.09_PT010H.grib2 2026-05-03 08:45 396K
20260503T06Z_MSC_RDPS_WindU_IsbL-0175_RLatLon0.09_PT010H.grib2 2026-05-03 08:45 415K
20260503T06Z_MSC_RDPS_WindU_IsbL-0200_RLatLon0.09_PT010H.grib2 2026-05-03 08:45 336K
20260503T06Z_MSC_RDPS_WindU_IsbL-0225_RLatLon0.09_PT010H.grib2 2026-05-03 08:45 343K
20260503T06Z_MSC_RDPS_WindU_IsbL-0250_RLatLon0.09_PT010H.grib2 2026-05-03 08:45 344K
20260503T06Z_MSC_RDPS_WindU_IsbL-0275_RLatLon0.09_PT010H.grib2 2026-05-03 08:45 358K
20260503T06Z_MSC_RDPS_WindU_IsbL-0300_RLatLon0.09_PT010H.grib2 2026-05-03 08:45 354K
20260503T06Z_MSC_RDPS_WindU_IsbL-0350_RLatLon0.09_PT010H.grib2 2026-05-03 08:45 464K
20260503T06Z_MSC_RDPS_WindU_IsbL-0400_RLatLon0.09_PT010H.grib2 2026-05-03 08:45 467K
20260503T06Z_MSC_RDPS_WindU_IsbL-0450_RLatLon0.09_PT010H.grib2 2026-05-03 08:45 467K
20260503T06Z_MSC_RDPS_WindU_IsbL-0500_RLatLon0.09_PT010H.grib2 2026-05-03 08:45 468K
20260503T06Z_MSC_RDPS_WindU_IsbL-0550_RLatLon0.09_PT010H.grib2 2026-05-03 08:45 468K
20260503T06Z_MSC_RDPS_WindU_IsbL-0600_RLatLon0.09_PT010H.grib2 2026-05-03 08:45 477K
20260503T06Z_MSC_RDPS_WindU_IsbL-0650_RLatLon0.09_PT010H.grib2 2026-05-03 08:45 494K
20260503T06Z_MSC_RDPS_WindU_IsbL-0700_RLatLon0.09_PT010H.grib2 2026-05-03 08:45 517K
20260503T06Z_MSC_RDPS_WindU_IsbL-0750_RLatLon0.09_PT010H.grib2 2026-05-03 08:45 545K
20260503T06Z_MSC_RDPS_WindU_IsbL-0800_RLatLon0.09_PT010H.grib2 2026-05-03 08:45 576K
20260503T06Z_MSC_RDPS_WindU_IsbL-0850_RLatLon0.09_PT010H.grib2 2026-05-03 08:45 631K
20260503T06Z_MSC_RDPS_WindU_IsbL-0875_RLatLon0.09_PT010H.grib2 2026-05-03 08:45 652K
20260503T06Z_MSC_RDPS_WindU_IsbL-0900_RLatLon0.09_PT010H.grib2 2026-05-03 08:45 658K
20260503T06Z_MSC_RDPS_WindU_IsbL-0925_RLatLon0.09_PT010H.grib2 2026-05-03 08:45 663K
20260503T06Z_MSC_RDPS_WindU_IsbL-0950_RLatLon0.09_PT010H.grib2 2026-05-03 08:45 660K
20260503T06Z_MSC_RDPS_WindU_IsbL-0970_RLatLon0.09_PT010H.grib2 2026-05-03 08:45 660K
20260503T06Z_MSC_RDPS_WindU_IsbL-0985_RLatLon0.09_PT010H.grib2 2026-05-03 08:45 657K
20260503T06Z_MSC_RDPS_WindU_IsbL-1000_RLatLon0.09_PT010H.grib2 2026-05-03 08:45 794K
20260503T06Z_MSC_RDPS_WindU_IsbL-1015_RLatLon0.09_PT010H.grib2 2026-05-03 08:45 788K
20260503T06Z_MSC_RDPS_WindV_AGL-10m_RLatLon0.09_PT010H.grib2 2026-05-03 08:45 437K
20260503T06Z_MSC_RDPS_WindV_AGL-120m_RLatLon0.09_PT010H.grib2 2026-05-03 08:45 421K
20260503T06Z_MSC_RDPS_WindV_AGL-40m_RLatLon0.09_PT010H.grib2 2026-05-03 08:45 541K
20260503T06Z_MSC_RDPS_WindV_AGL-80m_RLatLon0.09_PT010H.grib2 2026-05-03 08:45 421K
20260503T06Z_MSC_RDPS_WindV_IsbL-0001_RLatLon0.09_PT010H.grib2 2026-05-03 08:45 242K
20260503T06Z_MSC_RDPS_WindV_IsbL-0005_RLatLon0.09_PT010H.grib2 2026-05-03 08:45 277K
20260503T06Z_MSC_RDPS_WindV_IsbL-0010_RLatLon0.09_PT010H.grib2 2026-05-03 08:45 378K
20260503T06Z_MSC_RDPS_WindV_IsbL-0020_RLatLon0.09_PT010H.grib2 2026-05-03 08:45 307K
20260503T06Z_MSC_RDPS_WindV_IsbL-0030_RLatLon0.09_PT010H.grib2 2026-05-03 08:45 309K
20260503T06Z_MSC_RDPS_WindV_IsbL-0050_RLatLon0.09_PT010H.grib2 2026-05-03 08:45 337K
20260503T06Z_MSC_RDPS_WindV_IsbL-0100_RLatLon0.09_PT010H.grib2 2026-05-03 08:45 334K
20260503T06Z_MSC_RDPS_WindV_IsbL-0150_RLatLon0.09_PT010H.grib2 2026-05-03 08:45 398K
20260503T06Z_MSC_RDPS_WindV_IsbL-0175_RLatLon0.09_PT010H.grib2 2026-05-03 08:45 417K
20260503T06Z_MSC_RDPS_WindV_IsbL-0200_RLatLon0.09_PT010H.grib2 2026-05-03 08:45 337K
20260503T06Z_MSC_RDPS_WindV_IsbL-0225_RLatLon0.09_PT010H.grib2 2026-05-03 08:45 368K
20260503T06Z_MSC_RDPS_WindV_IsbL-0250_RLatLon0.09_PT010H.grib2 2026-05-03 08:45 370K
20260503T06Z_MSC_RDPS_WindV_IsbL-0275_RLatLon0.09_PT010H.grib2 2026-05-03 08:45 381K
20260503T06Z_MSC_RDPS_WindV_IsbL-0300_RLatLon0.09_PT010H.grib2 2026-05-03 08:45 378K
20260503T06Z_MSC_RDPS_WindV_IsbL-0350_RLatLon0.09_PT010H.grib2 2026-05-03 08:45 360K
20260503T06Z_MSC_RDPS_WindV_IsbL-0400_RLatLon0.09_PT010H.grib2 2026-05-03 08:45 363K
20260503T06Z_MSC_RDPS_WindV_IsbL-0450_RLatLon0.09_PT010H.grib2 2026-05-03 08:45 363K
20260503T06Z_MSC_RDPS_WindV_IsbL-0500_RLatLon0.09_PT010H.grib2 2026-05-03 08:45 467K
20260503T06Z_MSC_RDPS_WindV_IsbL-0550_RLatLon0.09_PT010H.grib2 2026-05-03 08:45 467K
20260503T06Z_MSC_RDPS_WindV_IsbL-0600_RLatLon0.09_PT010H.grib2 2026-05-03 08:45 474K
20260503T06Z_MSC_RDPS_WindV_IsbL-0650_RLatLon0.09_PT010H.grib2 2026-05-03 08:45 492K
20260503T06Z_MSC_RDPS_WindV_IsbL-0700_RLatLon0.09_PT010H.grib2 2026-05-03 08:45 515K
20260503T06Z_MSC_RDPS_WindV_IsbL-0750_RLatLon0.09_PT010H.grib2 2026-05-03 08:45 543K
20260503T06Z_MSC_RDPS_WindV_IsbL-0800_RLatLon0.09_PT010H.grib2 2026-05-03 08:45 585K
20260503T06Z_MSC_RDPS_WindV_IsbL-0850_RLatLon0.09_PT010H.grib2 2026-05-03 08:45 638K
20260503T06Z_MSC_RDPS_WindV_IsbL-0875_RLatLon0.09_PT010H.grib2 2026-05-03 08:45 658K
20260503T06Z_MSC_RDPS_WindV_IsbL-0900_RLatLon0.09_PT010H.grib2 2026-05-03 08:45 656K
20260503T06Z_MSC_RDPS_WindV_IsbL-0925_RLatLon0.09_PT010H.grib2 2026-05-03 08:45 662K
20260503T06Z_MSC_RDPS_WindV_IsbL-0950_RLatLon0.09_PT010H.grib2 2026-05-03 08:45 659K
20260503T06Z_MSC_RDPS_WindV_IsbL-0970_RLatLon0.09_PT010H.grib2 2026-05-03 08:45 660K
20260503T06Z_MSC_RDPS_WindV_IsbL-0985_RLatLon0.09_PT010H.grib2 2026-05-03 08:45 657K
20260503T06Z_MSC_RDPS_WindV_IsbL-1000_RLatLon0.09_PT010H.grib2 2026-05-03 08:45 793K
20260503T06Z_MSC_RDPS_WindV_IsbL-1015_RLatLon0.09_PT010H.grib2 2026-05-03 08:45 787K